DW0265 Weather Reports


time (UTC)temp
C
wind
direction
speed
KPH
gust
KPH
rain 1hr
cm
rain 24hr
cm
rain mn
cm
humidity
%
barometer
mb
20260507093004 13 180 0.0 4.8 0.00 0.00 0.00 62 1016.6
20260507090504 12 162 0.0 1.6 0.00 0.00 0.00 67 1016.6
20260507083503 12 187 0.0 4.8 0.00 0.00 0.00 71 1016.7
20260507083004 12 101 0.0 4.8 0.00 0.00 0.00 72 1016.7
20260507080004 11 177 1.6 9.7 0.00 0.00 0.00 76 1016.7
20260507073504 10 187 1.6 8.0 0.00 0.00 0.00 81 1016.5
20260507073004 10 174 1.6 11.3 0.00 0.00 0.00 84 1016.6
20260507063003 6 15 0.0 0.0 0.00 0.00 0.00 93 1016.4
20260507053503 5 15 0.0 0.0 0.00 0.00 0.00 91 1016.1
20260507050004 5 15 0.0 0.0 0.00 0.00 0.00 89 1016.1
20260507043504 5 15 0.0 0.0 0.00 0.00 0.00 89 1016.0
20260507040004 5 15 0.0 0.0 0.00 0.00 0.00 88 1015.9
20260507033005 6 15 0.0 0.0 0.00 0.00 0.00 87 1015.9
20260507030506 6 15 0.0 0.0 0.00 0.00 0.00 86 1015.9
20260507023005 7 15 0.0 0.0 0.00 0.00 0.00 85 1015.9
20260507020505 7 15 0.0 0.0 0.00 0.00 0.00 85 1015.7
20260507020005 7 15 0.0 0.0 0.00 0.00 0.00 85 1015.6
20260507013506 7 15 0.0 0.0 0.00 0.00 0.00 84 1015.6
20260507013005 7 15 0.0 0.0 0.00 0.00 0.00 84 1015.7
20260507010005 7 15 0.0 0.0 0.00 0.00 0.00 82 1015.6
20260507003505 8 15 0.0 0.0 0.00 0.00 0.00 80 1015.5
20260507000505 9 15 0.0 0.0 0.00 0.00 0.00 77 1015.6
20260506233005 10 15 0.0 0.0 0.00 0.00 0.00 74 1015.4
20260506230505 10 15 0.0 0.0 0.00 0.00 0.00 72 1015.4
20260506230005 10 15 0.0 0.0 0.00 0.00 0.00 72 1015.4
20260506223505 10 15 0.0 0.0 0.00 0.00 0.00 71 1015.4
20260506220506 11 15 0.0 0.0 0.00 0.00 0.00 70 1015.1
20260506220005 11 15 0.0 0.0 0.00 0.00 0.00 70 1015.2
20260506213505 11 15 0.0 0.0 0.00 0.00 0.00 68 1015.2
20260506210505 11 17 0.0 1.6 0.00 0.00 0.00 65 1015.0
20260506210004 11 31 0.0 0.0 0.00 0.00 0.00 64 1014.9
20260506190505 12 46 0.0 1.6 0.00 0.00 0.00 59 1014.0
20260506183505 13 40 0.0 0.0 0.00 0.00 0.00 58 1013.8
20260506180006 13 343 1.6 12.9 0.00 0.00 0.00 57 1013.4
20260506173504 13 328 3.2 4.8 0.00 0.00 0.00 60 1013.3
20260506170504 13 15 0.0 0.0 0.00 0.00 0.00 58 1013.2
20260506170005 13 15 0.0 4.8 0.00 0.00 0.00 58 1013.2
20260506163504 13 342 0.0 0.0 0.00 0.00 0.00 58 1013.2
20260506153505 13 323 0.0 3.2 0.00 0.00 0.00 60 1013.4
20260506153004 13 10 0.0 12.9 0.00 0.00 0.00 60 1013.3
20260506150505 13 78 0.0 4.8 0.00 0.00 0.00 58 1013.3
20260506150005 14 352 3.2 12.9 0.00 0.00 0.00 58 1013.3
20260506140004 15 35 0.0 14.5 0.00 0.00 0.00 54 1013.2
20260506123504 14 42 0.0 4.8 0.00 0.00 0.00 54 1013.2
20260506120005 14 341 6.4 22.5 0.00 0.00 0.00 51 1013.2
20260506113504 15 316 1.6 14.5 0.00 0.00 0.00 52 1013.3
20260506113004 15 34 0.0 14.5 0.00 0.00 0.00 53 1013.3
20260506110504 14 357 3.2 19.3 0.00 0.00 0.00 54 1013.5
20260506110004 13 347 1.6 22.5 0.00 0.00 0.00 56 1013.4
20260506100504 12 347 4.8 22.5 0.00 0.00 0.00 56 1013.4